{"data":{"norad_id":51786,"epoch":"2026-05-25T00:45:23.855040Z","epoch_age_seconds":72091,"freshness":"FRESH","line1":"1 51786U 22017U   26145.03152610 -.00001291  00000+0 -63043-4 0  9999","line2":"2 51786  53.2123   6.4078 0001787  86.4414 273.6783 15.08844594233800","mean_motion":15.08844594,"eccentricity":0.0001787,"inclination_deg":53.2123,"raan_deg":6.4078,"arg_perigee_deg":86.4414,"mean_anomaly_deg":273.6783,"bstar":-6.3043e-5,"rev_number":23380,"period_min":95.437264097723,"perigee_km":538.49312426339,"apogee_km":540.9655696958,"semimajor_km":6917.8663469796,"source":"CELESTRAK","updated_at":"2026-05-25T13:38:16.953627Z"}}